Stündliche Wetter Abbotsford

Heute, 14 Mai, Freitag

Zeit Temperatur Niederschläge Wind Luftdruck Luftfeuchtigkeit
00:00 +11°C° 0 mm 1 m/S 757 mmHg 90%
01:00 +11°C° 0 mm 1 m/S 757 mmHg 91%
02:00 +11°C° 0 mm 1 m/S 757 mmHg 91%
03:00 +11°C° 0 mm 1 m/S 757 mmHg 91%
04:00 +10°C° 0 mm 1 m/S 757 mmHg 92%
05:00 +12°C° 0 mm 1 m/S 757 mmHg 84%
06:00 +13°C° 0 mm 0 m/S 757 mmHg 77%
07:00 +14°C° 0 mm 0 m/S 757 mmHg 70%
08:00 +18°C° 0 mm 1 m/S 757 mmHg 64%
09:00 +20°C° 0 mm 1 m/S 757 mmHg 58%
10:00 +20°C° 0 mm 2 m/S 757 mmHg 53%
11:00 +21°C° 0 mm 2 m/S 757 mmHg 50%
12:00 +23°C° 0 mm 2 m/S 756 mmHg 48%
13:00 +24°C° 0 mm 2 m/S 756 mmHg 45%
14:00 +23°C° 0 mm 2 m/S 756 mmHg 45%
15:00 +23°C° 0 mm 2 m/S 755 mmHg 44%
16:00 +23°C° 0 mm 2 m/S 755 mmHg 43%
17:00 +20°C° 0 mm 2 m/S 755 mmHg 54%
18:00 +19°C° 0 mm 1 m/S 755 mmHg 64%
19:00 +16°C° 0 mm 1 m/S 755 mmHg 75%
20:00 +15°C° 0 mm 1 m/S 755 mmHg 76%
21:00 +13°C° 0 mm 1 m/S 755 mmHg 78%
22:00 +12°C° 0 mm 1 m/S 755 mmHg 80%
23:00 +12°C° 0 mm 1 m/S 755 mmHg 80%

Morgen, 15 Mai, Samstag

Zeit Temperatur Niederschläge Wind Luftdruck Luftfeuchtigkeit
00:00 +11°C° 0 mm 1 m/S 755 mmHg 80%
01:00 +11°C° 0 mm 1 m/S 756 mmHg 81%
02:00 +11°C° 0 mm 1 m/S 756 mmHg 81%
03:00 +10°C° 0 mm 1 m/S 756 mmHg 81%
04:00 +10°C° 0 mm 1 m/S 756 mmHg 81%
05:00 +12°C° 0 mm 1 m/S 756 mmHg 75%
06:00 +13°C° 0 mm 0 m/S 756 mmHg 68%
07:00 +14°C° 0 mm 0 m/S 756 mmHg 62%
08:00 +18°C° 0 mm 1 m/S 756 mmHg 57%
09:00 +20°C° 0 mm 1 m/S 756 mmHg 53%
10:00 +22°C° 0 mm 1 m/S 755 mmHg 48%
11:00 +23°C° 0 mm 2 m/S 755 mmHg 47%
12:00 +23°C° 0 mm 2 m/S 755 mmHg 45%
13:00 +24°C° 0 mm 2 m/S 754 mmHg 44%
14:00 +24°C° 0 mm 2 m/S 754 mmHg 44%
15:00 +24°C° 0 mm 2 m/S 754 mmHg 44%
16:00 +24°C° 0 mm 2 m/S 753 mmHg 44%
17:00 +21°C° 0 mm 2 m/S 753 mmHg 54%
18:00 +20°C° 0 mm 1 m/S 753 mmHg 64%
19:00 +18°C° 0 mm 1 m/S 753 mmHg 73%
20:00 +15°C° 0 mm 1 m/S 753 mmHg 76%
21:00 +14°C° 0 mm 1 m/S 753 mmHg 79%
22:00 +12°C° 0 mm 1 m/S 753 mmHg 82%
23:00 +12°C° 0 mm 1 m/S 753 mmHg 79%

übermorgen, 16 Mai, Sonntag

Zeit Temperatur Niederschläge Wind Luftdruck Luftfeuchtigkeit
00:00 +12°C° 0 mm 1 m/S 753 mmHg 77%
01:00 +12°C° 0 mm 1 m/S 753 mmHg 75%
02:00 +12°C° 0 mm 1 m/S 753 mmHg 75%
03:00 +12°C° 0 mm 1 m/S 753 mmHg 75%
04:00 +11°C° 0 mm 1 m/S 753 mmHg 75%
05:00 +13°C° 0 mm 1 m/S 753 mmHg 72%
06:00 +14°C° 0 mm 1 m/S 753 mmHg 68%
07:00 +16°C° 0 mm 1 m/S 753 mmHg 64%
08:00 +18°C° 0 mm 1 m/S 753 mmHg 62%
09:00 +19°C° 0 mm 2 m/S 753 mmHg 59%
10:00 +20°C° 0 mm 2 m/S 753 mmHg 56%
11:00 +20°C° 0 mm 3 m/S 753 mmHg 55%
12:00 +21°C° 0 mm 3 m/S 753 mmHg 54%
13:00 +21°C° 0 mm 3 m/S 753 mmHg 53%
14:00 +21°C° 0 mm 3 m/S 753 mmHg 54%
15:00 +21°C° 0 mm 3 m/S 752 mmHg 55%
16:00 +21°C° 0 mm 3 m/S 752 mmHg 55%
17:00 +20°C° 0 mm 2 m/S 752 mmHg 61%
18:00 +18°C° 0 mm 2 m/S 752 mmHg 68%
19:00 +17°C° 0 mm 2 m/S 752 mmHg 74%
20:00 +15°C° 0 mm 2 m/S 752 mmHg 77%
21:00 +14°C° 0 mm 2 m/S 753 mmHg 81%
22:00 +13°C° 0 mm 1 m/S 753 mmHg 85%
23:00 +12°C° 0 mm 1 m/S 753 mmHg 86%

17 Mai, Montag

Zeit Temperatur Niederschläge Wind Luftdruck Luftfeuchtigkeit
00:00 +12°C° 0 mm 1 m/S 753 mmHg 87%
01:00 +11°C° 0 mm 1 m/S 753 mmHg 88%
02:00 +11°C° 0 mm 1 m/S 753 mmHg 89%
03:00 +11°C° 0 mm 1 m/S 754 mmHg 89%
04:00 +11°C° 0 mm 1 m/S 754 mmHg 89%
05:00 +12°C° 0 mm 2 m/S 754 mmHg 84%
06:00 +13°C° 0 mm 2 m/S 754 mmHg 79%
07:00 +14°C° 0 mm 2 m/S 754 mmHg 74%
08:00 +15°C° 0 mm 2 m/S 754 mmHg 70%
09:00 +14°C° 0 mm 3 m/S 755 mmHg 66%
10:00 +16°C° 0 mm 3 m/S 755 mmHg 62%
11:00 +17°C° 0 mm 3 m/S 755 mmHg 59%
12:00 +17°C° 0 mm 3 m/S 755 mmHg 57%
13:00 +18°C° 0 mm 3 m/S 755 mmHg 54%
14:00 +18°C° 0 mm 3 m/S 754 mmHg 56%
15:00 +17°C° 0 mm 2 m/S 754 mmHg 58%
16:00 +17°C° 0 mm 2 m/S 754 mmHg 61%
17:00 +15°C° 0.1 mm 2 m/S 754 mmHg 69%
18:00 +14°C° 0.1 mm 1 m/S 754 mmHg 78%
19:00 +13°C° 0.1 mm 1 m/S 754 mmHg 87%
20:00 +13°C° 0.6 mm 1 m/S 754 mmHg 90%
21:00 +12°C° 0.6 mm 1 m/S 754 mmHg 93%
22:00 +12°C° 0.6 mm 1 m/S 754 mmHg 96%
23:00 +11°C° 0.7 mm 1 m/S 754 mmHg 96%

18 Mai, Dienstag

Zeit Temperatur Niederschläge Wind Luftdruck Luftfeuchtigkeit
00:00 +10°C° 0.7 mm 0 m/S 754 mmHg 96%
01:00 +10°C° 0.7 mm 0 m/S 754 mmHg 96%
02:00 +9°C° 1 mm 0 m/S 753 mmHg 97%
03:00 +10°C° 1 mm 1 m/S 753 mmHg 97%
04:00 +10°C° 1 mm 1 m/S 753 mmHg 98%
05:00 +9°C° 1 mm 0 m/S 753 mmHg 98%
06:00 +9°C° 1 mm 0 m/S 753 mmHg 98%
07:00 +9°C° 1 mm 0 m/S 753 mmHg 98%
08:00 +9°C° 1.3 mm 0 m/S 753 mmHg 98%
09:00 +9°C° 1.3 mm 0 m/S 752 mmHg 97%
10:00 +9°C° 1.3 mm 0 m/S 752 mmHg 97%
11:00 +10°C° 1.5 mm 0 m/S 752 mmHg 97%
12:00 +10°C° 1.5 mm 0 m/S 752 mmHg 97%
13:00 +10°C° 1.5 mm 0 m/S 752 mmHg 97%
14:00 +10°C° 1.5 mm 0 m/S 752 mmHg 97%
15:00 +10°C° 1.5 mm 0 m/S 752 mmHg 97%
16:00 +11°C° 1.5 mm 1 m/S 752 mmHg 97%
17:00 +11°C° 1.2 mm 1 m/S 752 mmHg 98%
18:00 +10°C° 1.2 mm 1 m/S 752 mmHg 98%
19:00 +10°C° 1.2 mm 1 m/S 752 mmHg 98%
20:00 +9°C° 1.1 mm 2 m/S 752 mmHg 98%
21:00 +8°C° 1.1 mm 2 m/S 752 mmHg 98%
22:00 +8°C° 1.1 mm 2 m/S 752 mmHg 97%
23:00 +8°C° 1.4 mm 1 m/S 752 mmHg 97%

19 Mai, Mittwoch

Zeit Temperatur Niederschläge Wind Luftdruck Luftfeuchtigkeit
00:00 +8°C° 1.4 mm 1 m/S 753 mmHg 98%
01:00 +8°C° 1.4 mm 1 m/S 753 mmHg 98%
02:00 +7°C° 2 mm 1 m/S 753 mmHg 98%
03:00 +7°C° 2 mm 1 m/S 752 mmHg 98%
04:00 +7°C° 2 mm 1 m/S 752 mmHg 98%
05:00 +7°C° 0.9 mm 1 m/S 753 mmHg 97%
06:00 +8°C° 0.9 mm 1 m/S 753 mmHg 96%
07:00 +8°C° 0.9 mm 1 m/S 753 mmHg 94%
08:00 +8°C° 1.3 mm 1 m/S 754 mmHg 95%
09:00 +7°C° 1.3 mm 2 m/S 754 mmHg 95%
10:00 +7°C° 1.3 mm 2 m/S 754 mmHg 95%
11:00 +8°C° 0.7 mm 2 m/S 754 mmHg 91%
12:00 +9°C° 0.7 mm 2 m/S 754 mmHg 86%
13:00 +9°C° 0.7 mm 2 m/S 754 mmHg 81%
14:00 +10°C° 0.4 mm 2 m/S 754 mmHg 80%
15:00 +10°C° 0.4 mm 2 m/S 754 mmHg 79%
16:00 +12°C° 0.4 mm 2 m/S 754 mmHg 77%
17:00 +10°C° 0.7 mm 2 m/S 754 mmHg 82%
18:00 +9°C° 0.7 mm 2 m/S 754 mmHg 88%
19:00 +8°C° 0.7 mm 2 m/S 755 mmHg 93%
20:00 +7°C° 0.2 mm 2 m/S 755 mmHg 93%
21:00 +7°C° 0.2 mm 1 m/S 756 mmHg 94%
22:00 +7°C° 0.2 mm 1 m/S 756 mmHg 94%
23:00 +6°C° 0.1 mm 1 m/S 756 mmHg 94%
Mehr zeigen

Wir brauchen deine Erlaubnis

Meteoprog und unser Service Anbieter werden persönliche Daten aufbewahren, so wie Cookies, Geräte Bezeichnung oder ähnliche Technologien von deinem Gerät und Prozess, so wie Persönliche Daten Inhalte und Werbungen, genauso wie social Media und den Verkehr zu analysieren.

  • Aufbewahrung und/oder Zugang zu deiner Geräte Informationen.

    Cookies, Geräte Bezeichnung oder andere Informationen, können aufbewahrt oder Zugang zu deinem Gerät erhalten, für den Grund, der oben angegeben wird.

  • Personalisierte Werbung und Inhalte, Messungen, Einblick in das Publikum und Produkt Entwicklung.

    Werbungen und Inhalte können personalisiert werden, basierend auf ein Profil. Mehr Daten können besser personalisierte Werbungen und Inhalte hinzufügen. Werbung und Inhalte können gezeigt und gemessen werden. Einblicke über das Publikum, welche die Werbung gesehen haben und den Inhalt, können abgeleitet werden. So wie Daten können genutzt werden, um es zu verbessern oder die Benutzer Erfahrung zu verbessern das System und die Software.

Wenn du “Ich stimme zu” klickst, erlaubst du uns, die Cookies zu benutzen die Geräte Bezeichnung, den Web oder ähnliche Technologien zu benutzen. Deine Settings, können in deinem Gerät bei deinem Browser geändert werden.

Für den bestimmten Zweck, berechtigten Interessen beruhen darauf, mehr als auf den Inhalt. Du kannst mehr darüber in unseren Privaten und Cookie Politik lesen.